This is the latest recevied weather packets stored in our database for station/object HF3P-11. If no packets are shown the sender has not sent any weather packets the latest 10 day(s).
| Time | Temp. | Humidity | Pressure | Rain* | Wind** | Luminosity | Snow |
|---|---|---|---|---|---|---|---|
| 1777444800 | 8.89° C | 32% | 1022.5 hPa | 0 mm | - | - | - |
| 1777444510 | 9.44° C | 32% | 1022.5 hPa | 0 mm | - | - | - |
| 1777444200 | 8.89° C | 38% | 1022.4 hPa | 0 mm | - | - | - |
| 1777443908 | 7.78° C | 40% | 1022.5 hPa | 0 mm | - | - | - |
| 1777443601 | 7.78° C | 42% | 1022.5 hPa | 0 mm | - | - | - |
| 1777443307 | 7.78° C | 45% | 1022.4 hPa | 0 mm | - | - | - |
| 1777443000 | 7.22° C | 46% | 1022.4 hPa | 0 mm | - | - | - |
| 1777442708 | 7.78° C | 50% | 1022.4 hPa | 0 mm | - | - | - |
| 1777442409 | 7.78° C | 50% | 1022.3 hPa | 0 mm | - | - | - |
| 1777442100 | 7.22° C | 51% | 1022.2 hPa | 0 mm | - | - | - |
| 1777441808 | 6.67° C | 56% | 1022.2 hPa | 0 mm | - | - | - |
| 1777441500 | 5.56° C | 59% | 1022.2 hPa | 0 mm | - | - | - |
| 1777441210 | 4.44° C | 59% | 1022.1 hPa | 0 mm | - | - | - |
| 1777440901 | 4.44° C | 57% | 1022.1 hPa | 0 mm | - | - | - |
| 1777440608 | 5° C | 56% | 1021.9 hPa | 0 mm | - | - | - |
| 1777440310 | 5.56° C | 56% | 1021.9 hPa | 0 mm | - | - | - |
| 1777440000 | 5.56° C | 54% | 1022 hPa | 0 mm | - | - | - |
| 1777439700 | 6.67° C | 53% | 1021.9 hPa | 0 mm | - | - | - |
| 1777439400 | 7.22° C | 52% | 1021.8 hPa | 0 mm | - | - | - |
| 1777439109 | 7.22° C | 52% | 1021.7 hPa | 0 mm | - | - | - |
| 1777438800 | 7.22° C | 52% | 1021.6 hPa | 0 mm | - | - | - |
| 1777438508 | 7.22° C | 56% | 1021.6 hPa | 0 mm | - | - | - |
| 1777438200 | 6.11° C | 59% | 1021.7 hPa | 0 mm | - | - | - |
| 1777437900 | 5° C | 60% | 1021.7 hPa | 0 mm | - | - | - |
| 1777437608 | 4.44° C | 61% | 1021.5 hPa | 0 mm | - | - | - |
* Rain latest hour (hover to see other rain measurements)
** Current wind speed in m/s (hover to see current wind gust speed)